SCP
0 0 0 0 0 0 0 0 0 0 0 0 0 0 0 0 0 0 0 0 0 0 0 0 0 0 0 0 0 0 0 0 0 0 0 0 0 0 0 0 0 0 0 0 0 0 0 0 0 0 0 0 0 0
0 0 0 0 0 0 0 0 0 0 0 0 0 0 0 0 0 0 0 0 0 0 0 0 0 0 0 0 0 0 0 0 0 0 0 0 0 0 0 0 0 0 0 0 0 0 0 0 0 0 0 0 0 0
0 0 0 0 0 0 0 0 0 0 0 0 0 0 0 0 0 0 0 0 0 0 0 0 0 0 0 0 0 0 0 0 0 0 0 0 0 0 0 0 0 0 0 0 0 0 0 0 0 0 0 0 0 0
0 0 0 0 0 0 0 0 0 0 0 0 0 0 0 0 0 0 0 0 0 0 0 0 0 0 0 0 0 0 0 0 0 0 0 0 0 0 0 0 0 0 0 0 0 0 0 0 0 0 0 0 0 0
0 0 0 0 0 0 0 0 0 0 0 0 0 0 0 0 0 0 0 0 0 0 0 0 0 0 0 0 0 0 0 0 0 0 0 0 0 0 0 0 0 0 0 0 0 0 0 0 0 0 0 0 0 0
0 0 0 0 0 0 0 0 0 0 0 0 0 0 0 0 0 0 0 0 0 0 0 0 0 0 0 0 0 0 0 0 0 0 0 0 0 0 0 0 0 0 0 0 0 0 0 0 0 0 0 0 0 0
0 0 0 0 0 0 0 0 0 0 0 0 0 0 0 0 0 0 0 0 0 0 0 0 0 0 0 0 0 0 0 0 0 0 0 0 0 0 0 0 0 0 0 0 0 0 0 0 0 0 0 0 0 0
0 0 0 0 0 0 0 0 0 0 0 0 0 0 0 0 0 0 0 0 0 0 0 0 0 0 0 0 0 0 0 0 0 0 0 0 0 0 0 0 0 0 0 0 0 0 0 0 0 0 0 0 0 0
0 0 0 0 0 0 0 0 0 0 0 0 0 0 0 0 0 0 0 0 0 0 0 0 0 0 0 0 0 0 0 0 0 0 0 0 0 0 0 0 0 0 0 0 0 0 0 0 0 0 0 0 0 0
0 0 0 0 0 0 0 0 0 0 0 0 0 0 0 0 0 0 0 0 0 0 0 0 0 0 0 0 0 0 0 0 0 0 0 0 0 0 0 0 0 0 0 0 0 0 0 0 0 0 0 0 0 0
0 -0 0 0 0 0 0 -0 0 0 0 0 0 0 0 0 0 0 0 0 0 0 0 0 0 0 0 0 0 0 0 0 0 0 0 0 0 0 0 0 0 0 0 0 0 0 0 0 0 0 0 0 0 0
0 0 0 0 0 0 0 0 0 0 0 0 0 0 0 0 0 0 0 0 0 0 0 0 0 0 0 0 0 0 0 0 0 0 0 0 0 0 0 0 0 0 0 0 0 0 0 0 0 0 0 0 0 0
0 0 0 0 0 0 0 0 0 0 0 0 0 0 0 0 0 0 0 0 0 0 0 0 0 0 0 0 0 0 0 0 0 0 0 0 0 0 0 0 0 0 0 0 0 0 0 0 0 0 0 0 0 0
0 0 0 -0 0 0 0 0 0 0 0 0 0 0 0 0 0 0 0 0 0 0 0 0 0 0 0 0 0 0 0 0 0 0 0 0 0 0 0 0 0 0 0 0 0 0 0 0 0 0 0 0 0 -0
0 0 0 0 0 0 0 0 0 0 0 0 0 0 0 0 0 0 0 0 0 0 0 0 0 0 0 0 0 0 0 0 0 0 0 0 0 0 0 0 0 0 0 0 0 0 0 0 0 0 0 0 -0 -0
-0 0 0 0 0 0 0 0 0 0 0 0 0 0 0 0 0 0 0 0 0 0 0 0 0 0 0 0 0 0 0 0 0 0 0 0 0 0 0 0 0 0 0 0 0 0 0 0 0 0 0 -0 -0 -0
0 0 0 0 0 0 0 0 0 0 0 0 0 0 0 0 0 0 0 0 0 0 0 0 0 0 0 0 0 0 0 0 0 0 0 0 0 0 0 0 0 0 0 0 0 0 0 0 0 0 -0 -0 -0 -0
0 0 0 0 0 0 0 0 0 0 0 0 0 0 0 0 0 0 0 0 0 0 0 0 0 0 0 0 0 0 0 0 0 0 0 0 0 0 0 0 0 0 0 0 0 0 0 0 -0 -0 -0 0 0 0
0 0 0 0 0 0 0 0 0 0 0 0 0 0 0 0 0 0 0 0 0 0 0 0 0 0 0 0 0 0 0 0 0 0 0 0 0 0 0 0 0 0 0 0 0 0 -0 -0 -0 -0 0 0 0 0
0 -0 -0 0 0 0 0 0 0 0 0 0 0 0 0 0 0 0 0 0 0 0 0 0 0 0 0 0 0 0 0 0 0 0 0 0 0 0 0 0 0 0 0 0 -0 -0 -0 -0 0 0 0 0 0 0
0 0 -0 0 0 0 0 0 0 0 0 0 0 0 0 0 0 0 0 0 0 0 0 0 0 0 0 0 0 0 0 0 0 0 0 0 0 0 0 0 0 0 0 -0 -0 0 0 0 0 0 0 0 0 0
0 0 0 0 0 0 0 0 0 0 0 0 0 0 0 0 0 0 0 0 0 0 0 0 0 0 0 0 0 0 0 0 0 0 0 0 0 0 0 0 0 0 -0 -0 0 0 0 0 0 0 0 0 0 0
0 0 0 0 0 0 0 0 0 0 0 0 0 0 0 0 0 0 0 0 0 0 0 0 0 0 0 0 0 0 0 0 0 0 0 0 0 0 0 0 0 0 0 0 0 0 0 0 0 0 0 0 0 0
0 0 0 0 0 0 0 0 0 0 0 0 0 0 0 0 0 0 0 0 0 0 0 0 0 0 0 0 0 0 0 0 0 0 0 0 0 0 0 0 -0 -0 -0 0 0 0 0 0 0 0 0 0 0 0
-0 0 0 0 0 0 0 0 0 0 0 0 0 0 0 0 0 0 0 0 0 0 0 0 0 0 0 0 0 0 0 0 0 0 0 0 0 0 0 0 -0 -0 -0 -0 -0 0 0 0 0 0 0 0 0 0
0 0 0 0 0 0 0 0 0 0 0 0 0 0 0 0 0 0 0 0 0 0 0 0 0 0 0 0 0 -0 -0 -0 0 0 0 0 0 0 0 0 -0 -0 -0 -0 -0 0 0 0 0 0 0 0 0 0
0 0 0 0 0 0 0 0 0 0 0 0 0 0 0 0 0 0 0 0 0 0 -0 0 0 -0 -0 -0 -0 -0 0 0 0 0 -0 0 -0 -0 -0 -0 -0 -0 0 -0 0 0 0 0 0 0 0 0 0 0
0 0 0 0 0 0 0 0 0 0 0 0 0 0 0 0 0 0 0 0 0 -0 -0 -0 -0 -0 -0 0 0 0 0 -0 -0 -0 -0 -0 -0 -0 -0 -0 -0 -0 -0 0 0 0 0 0 0 0 0 0 0 0
0 0 0 0 0 0 0 0 0 0 0 0 0 0 0 0 0 0 0 0 -0 0 0 0 0 0 0 0 0 0 0 0 -0 0 0 0 0 0 0 0 0 0 0 0 0 0 0 0 0 0 0 0 0 0
-0 -0 -0 -0 -0 -0 -0 -0 -0 0 0 0 0 0 -0 -0 -0 0 0 -0 -0 0 0 0 0 0 0 0 0 0 0 0 0 0 0 0 0 0 0 0 0 0 0 0 0 0 0 0 0 0 0 0 0 0
0 0 -0 -0 0 -0 0 0 -0 -0 -0 -0 -0 -0 0 0 0 0 -0 -0 0 0 0 0 0 0 0 0 0 0 0 0 0 0 0 0 0 0 0 0 0 0 0 0 0 0 0 0 0 0 0 0 0 0
0 -0 -0 0 -0 -0 -0 -0 -0 -0 -0 -0 -0 -0 0 0 -0 0 0 0 0 0 0 0 0 0 0 0 0 0 0 0 0 0 0 0 0 0 0 0 0 0 0 0 0 0 0 0 0 0 0 0 0 0
-0 -0 0 0 0 0 0 0 -0 -0 0 0 0 0 0 0 0 0 0 0 0 0 0 0 0 0 0 0 0 0 0 0 0 0 0 0 0 0 0 0 0 0 0 0 0 0 0 0 0 0 0 0 0 0
Wind_Speed_500mb
55 55 53 57 55 49 51 52 52 49 50 46 45 59 52 51 53 55 69 61 57 33 55 39 46 48 23 24 8 8 5 5 5 3 7 7 6 8 1 6 7 10 8 7 5 6 14 11 7 9 12 40 43 38
63 63 59 58 56 56 54 56 53 52 56 55 53 50 53 69 60 53 62 68 70 55 35 27 47 69 65 58 42 32 22 16 15 5 3 3 5 3 7 7 5 4 11 7 15 12 9 21 32 60 45 44 52 43
61 65 62 61 62 62 59 60 56 56 56 53 52 49 53 55 55 57 66 65 54 53 39 48 62 76 68 60 54 45 37 39 32 42 12 8 14 6 6 12 8 10 14 20 29 28 34 60 72 55 71 68 71 56
67 67 66 64 65 65 65 65 66 61 61 61 56 53 55 55 58 59 62 66 70 37 12 34 53 63 34 41 62 75 75 37 39 38 21 9 10 16 14 17 17 17 11 11 24 36 42 56 69 67 56 54 50 46
68 69 70 70 70 67 65 66 65 64 62 59 57 52 53 56 55 56 58 66 70 55 5 9 29 42 49 46 52 56 64 65 47 23 12 14 18 17 11 12 23 30 34 18 24 53 45 50 69 50 39 40 41 48
69 69 66 66 67 69 70 70 69 66 65 63 61 55 51 49 46 48 36 66 73 74 25 6 22 48 54 53 50 51 56 58 38 19 17 34 40 23 9 13 26 45 54 60 52 72 67 62 54 54 42 38 41 45
61 62 63 63 64 66 68 66 66 67 64 63 61 61 58 52 47 56 16 8 20 59 28 7 5 17 39 43 55 56 57 34 36 34 27 42 41 27 13 28 39 42 57 62 57 58 46 38 22 29 37 46 52 56
58 59 60 61 61 62 63 65 64 63 61 57 57 51 49 49 47 58 71 64 34 49 23 6 6 3 27 19 19 32 25 25 22 23 15 17 25 24 18 28 42 54 50 43 37 33 36 39 35 34 38 47 56 63
53 56 59 59 59 56 55 57 60 60 57 55 51 46 45 53 50 53 46 45 64 50 10 10 10 9 24 20 18 19 20 7 17 10 10 17 10 14 12 32 39 33 21 21 24 26 28 30 34 38 43 49 56 66
56 55 51 54 56 54 54 56 58 57 52 50 48 30 16 31 38 26 21 22 46 26 22 6 19 5 29 24 14 11 15 7 9 12 13 10 27 48 44 42 25 23 23 22 20 15 27 37 38 44 49 52 59 69
47 51 51 50 49 49 49 55 55 51 47 54 30 24 20 20 33 19 16 12 10 5 13 15 36 6 24 7 8 15 6 5 6 10 12 6 7 9 28 27 24 21 20 21 22 24 28 36 45 52 57 61 66 69
54 48 43 46 48 47 43 43 44 49 49 47 29 32 31 22 16 11 9 7 8 11 9 10 17 30 17 22 8 10 8 5 11 5 6 5 8 14 20 20 19 17 19 19 23 27 31 36 41 50 58 63 65 67
51 51 51 48 45 49 48 46 44 46 52 43 29 23 18 17 15 15 17 6 4 5 19 17 9 24 17 22 6 8 10 11 10 4 8 10 8 13 11 11 12 13 17 20 24 31 37 43 46 49 57 57 60 63
45 44 46 49 47 45 48 49 49 45 42 24 21 14 17 10 10 8 10 10 14 17 43 26 12 7 12 7 5 6 5 7 5 6 10 5 17 16 10 8 10 14 20 27 33 38 42 46 51 51 50 51 53 55
33 35 39 41 44 41 43 46 45 50 36 16 13 14 9 7 8 13 21 18 18 23 29 11 7 10 2 4 7 4 4 9 12 10 6 15 16 10 6 9 14 20 26 32 37 42 45 46 48 51 44 42 40 42
32 32 35 39 42 44 41 37 40 47 25 13 3 7 9 8 4 7 17 13 27 38 23 8 6 7 7 5 9 11 8 12 9 5 14 17 8 5 8 12 18 25 30 34 36 39 41 40 40 42 39 34 33 32
32 39 40 35 32 32 36 40 39 19 5 6 4 12 8 11 13 16 19 19 31 24 6 5 13 16 4 5 7 9 11 6 10 18 13 6 3 5 11 16 20 25 27 28 30 29 30 29 29 30 33 30 26 21
20 17 21 27 36 36 34 37 22 7 8 9 2 3 11 12 16 16 21 31 27 15 16 8 11 5 10 11 8 4 7 18 19 16 8 4 2 7 14 18 19 20 22 23 24 25 25 25 24 25 27 24 19 14
8 19 14 18 35 25 7 6 7 8 7 7 10 10 10 13 10 15 24 33 18 15 19 10 6 7 7 4 6 11 21 17 12 13 8 5 0 4 7 10 13 16 18 20 20 22 22 19 19 19 19 18 15 14
13 6 13 23 28 10 9 10 9 12 5 8 10 9 13 9 14 15 17 21 18 13 5 5 7 7 7 11 12 14 16 15 13 14 13 8 5 4 8 12 14 15 16 18 18 20 21 18 16 15 15 15 14 14
9 4 30 42 13 14 13 8 10 9 12 8 14 6 8 13 9 7 8 13 5 2 2 5 8 13 12 11 9 10 11 11 10 10 13 17 13 12 12 12 13 15 20 23 26 28 28 29 26 22 18 16 16 16
5 13 11 16 11 11 14 13 14 11 8 10 8 5 7 4 2 3 4 4 2 2 3 6 13 11 9 11 12 11 9 12 14 16 17 18 15 12 10 10 10 13 17 21 24 26 27 27 26 23 21 20 18 17
10 7 10 10 10 11 6 8 6 6 5 5 5 3 4 4 6 3 3 2 2 6 9 11 12 13 14 14 14 14 16 18 20 21 19 14 9 4 4 6 9 12 12 14 16 19 21 21 21 22 22 20 19 18
11 9 13 12 15 6 5 8 6 6 6 5 5 5 3 2 5 6 3 6 5 12 15 14 15 18 18 17 18 20 21 22 20 16 11 7 3 1 4 7 9 10 14 16 15 15 16 17 18 19 19 19 20 20
7 20 14 12 14 6 8 7 8 6 5 2 6 2 2 1 4 1 4 4 14 23 20 19 20 19 21 25 25 23 20 16 13 10 7 4 4 5 7 9 9 9 10 10 11 13 15 17 19 21 23 23 23 25
15 16 11 2 9 6 1 5 4 3 4 5 1 3 3 5 6 8 5 4 10 26 28 29 30 29 26 24 23 19 13 9 7 8 9 11 11 12 12 10 8 7 6 8 11 14 17 20 22 24 25 27 29 28
11 8 11 14 4 5 8 8 6 6 6 4 2 3 6 2 8 6 4 9 12 19 23 24 25 23 22 22 17 12 8 5 5 6 8 10 11 11 11 10 8 7 8 12 16 20 23 25 27 29 30 28 32 36
8 13 6 17 9 10 7 4 5 3 3 2 5 4 10 11 7 1 3 13 17 25 27 27 26 24 19 17 14 9 6 4 6 7 8 8 7 8 8 7 7 10 13 17 21 25 29 31 33 35 36 37 37 37
8 15 9 8 6 8 3 4 4 2 3 4 4 4 6 6 4 3 2 13 18 25 28 29 27 24 20 17 12 9 6 6 7 8 8 8 8 8 7 9 12 17 23 27 28 31 32 33 35 39 42 44 45 44
10 16 4 2 4 1 2 2 2 2 4 6 8 9 10 8 8 12 14 13 20 22 22 22 21 21 19 17 15 14 12 12 13 15 17 13 13 16 19 21 23 26 32 35 34 31 31 34 36 38 41 43 44 45
13 8 3 1 2 1 2 7 11 12 10 6 11 11 11 12 7 4 9 15 20 25 27 27 26 23 22 18 14 13 14 15 15 14 16 19 22 23 24 27 29 33 37 39 39 40 41 43 46 50 51 52 51 52
12 7 2 5 4 6 7 9 4 3 3 3 4 6 7 8 7 7 9 4 15 20 19 21 20 14 13 15 18 18 15 15 16 18 20 21 22 23 26 30 33 37 41 45 48 51 54 57 59 59 61 61 61 61
7 7 5 6 5 6 11 15 8 8 3 3 4 7 6 6 4 13 13 11 2 9 14 15 17 18 17 13 11 11 11 9 10 14 19 24 29 33 39 44 47 51 55 58 59 60 61 62 64 64 65 65 64 60
Wind_Direction_500mb
258 258 256 254 256 260 246 250 249 250 251 255 258 247 250 248 243 239 241 235 224 235 249 239 243 232 229 217 165 207 1 283 59 96 144 242 198 224 293 262 208 183 174 222 80 32 294 196 345 150 233 300 286 292
256 254 251 252 251 254 254 249 252 249 249 248 249 248 244 250 252 250 248 245 236 231 240 244 252 254 245 247 244 221 219 171 199 114 240 46 289 347 175 238 171 276 200 189 188 217 253 270 271 292 298 291 294 287
259 258 258 255 256 252 253 253 260 254 254 251 250 254 262 256 253 248 249 250 230 232 242 239 247 251 245 237 240 232 241 239 233 237 194 214 236 154 227 241 244 245 241 255 267 262 256 267 276 279 292 286 292 295
258 256 257 255 257 257 254 252 251 253 253 252 253 253 259 259 256 252 247 247 240 237 235 247 247 240 250 237 239 240 245 241 243 235 223 219 236 214 252 254 235 235 184 214 250 261 269 267 271 278 283 289 290 287
262 260 258 255 254 256 257 257 254 252 252 251 248 251 252 260 258 255 250 246 247 228 235 237 240 235 242 241 242 244 241 241 238 236 228 243 240 239 230 243 249 231 239 232 251 262 264 273 279 286 283 287 283 287
263 262 260 256 255 255 257 257 255 254 251 251 250 248 248 255 254 252 257 254 246 246 248 221 245 235 242 244 242 232 235 234 220 227 238 240 234 204 242 245 254 253 244 242 248 262 273 275 279 283 286 286 290 296
263 262 260 259 257 258 258 255 253 249 250 249 247 246 245 250 244 236 225 267 250 225 231 238 243 212 221 227 230 231 224 217 222 237 240 247 247 227 252 258 266 258 254 258 259 260 271 272 261 270 287 296 299 301
264 263 261 259 257 256 255 253 251 247 245 244 244 243 241 243 250 247 247 245 233 202 217 218 252 283 193 188 204 219 212 210 223 228 241 232 250 232 249 253 254 257 258 252 249 258 263 276 287 291 295 299 300 303
267 265 261 256 254 253 254 250 246 242 241 239 241 235 239 237 236 244 255 257 244 219 207 187 163 234 183 197 183 177 188 194 215 217 218 202 217 226 219 243 253 241 240 246 264 273 279 285 294 301 304 309 310 309
266 265 261 257 249 250 254 247 244 235 233 235 223 214 214 216 232 233 225 219 204 210 220 203 187 196 177 173 185 159 193 213 209 225 207 224 245 249 248 252 247 249 254 266 285 278 283 291 301 305 308 310 310 312
268 262 259 257 252 253 251 239 231 228 221 217 198 195 188 179 181 193 210 212 207 211 207 177 188 139 193 148 186 204 200 211 213 241 179 213 262 205 222 221 230 241 261 278 283 287 293 298 305 307 308 310 312 314
264 265 262 254 252 249 240 225 218 218 219 211 202 183 176 181 190 207 190 182 206 216 189 151 176 187 184 199 165 193 202 177 238 121 186 234 236 201 203 211 225 242 258 271 284 291 293 296 300 301 304 308 311 311
258 255 253 256 254 244 240 239 229 225 230 201 198 166 178 175 200 190 180 222 187 171 173 169 176 169 167 195 195 186 213 223 108 144 219 220 154 179 190 206 226 248 270 282 289 294 298 301 304 305 306 310 311 311
256 257 254 249 247 244 231 226 226 223 216 201 172 195 187 175 207 177 166 181 208 199 180 170 126 166 181 175 188 213 213 130 223 234 233 228 170 172 192 228 251 272 289 299 305 306 307 308 309 312 314 313 311 312
265 256 246 245 241 236 229 220 218 216 221 228 184 191 186 135 94 156 163 154 174 174 156 117 97 168 202 210 205 199 188 226 202 222 224 157 161 183 235 278 296 303 306 308 312 314 316 315 313 311 315 313 311 311
250 251 248 243 239 231 221 219 217 218 225 226 169 97 93 93 339 164 188 186 176 164 145 127 141 160 209 207 203 212 192 219 241 196 149 159 184 252 283 301 312 315 316 315 314 314 314 316 316 316 319 318 315 314
254 256 251 237 226 217 212 214 215 217 204 123 114 122 124 119 153 166 166 169 168 166 173 156 170 203 90 194 232 192 205 221 154 147 156 190 248 292 306 317 321 318 318 317 316 319 320 320 318 321 323 328 323 319
229 250 240 219 204 205 208 197 189 136 79 49 329 82 116 110 133 154 165 165 163 195 163 186 128 167 194 192 249 197 161 148 150 161 176 201 255 321 323 330 332 330 331 331 328 326 325 328 329 333 335 336 338 344
212 219 214 206 195 185 146 71 73 98 83 94 112 131 116 117 131 157 161 172 181 159 139 133 161 202 226 192 181 178 169 168 166 172 172 165 272 345 348 352 358 356 352 349 349 349 347 341 336 336 345 352 359 10
327 267 212 188 175 127 82 44 64 82 99 136 116 99 87 100 126 130 143 153 160 152 122 174 210 181 149 145 143 158 165 170 170 148 152 148 138 77 61 51 38 31 30 30 24 23 23 26 19 15 15 16 20 27
299 255 182 177 136 85 90 82 63 86 120 98 116 111 101 109 109 160 140 152 158 116 242 174 147 141 140 155 172 177 176 176 173 175 160 150 135 110 84 69 55 45 42 40 39 38 34 30 28 29 31 36 38 41
135 122 103 92 87 81 79 59 104 101 86 104 95 69 84 96 17 32 84 77 112 139 151 153 161 156 170 181 182 180 164 156 154 152 152 146 134 117 97 70 50 39 35 34 34 32 33 32 33 34 38 42 40 38
125 81 67 62 88 64 63 89 83 50 99 124 125 123 53 35 24 40 28 281 253 199 176 164 173 176 172 171 166 158 148 144 142 142 142 140 136 111 30 1 7 15 17 18 18 24 21 22 25 28 30 30 31 29
94 56 39 46 43 82 86 44 65 81 78 48 57 70 345 269 11 41 252 267 200 178 173 176 177 176 169 161 153 147 146 147 144 146 150 158 178 325 329 332 337 346 2 6 7 8 9 12 13 12 12 11 10 10
92 12 18 12 26 50 50 27 1 59 92 13 97 40 309 1 68 13 239 263 189 182 180 181 181 184 165 151 148 146 147 146 148 157 170 196 256 289 313 323 327 333 349 4 9 15 17 16 14 12 9 7 5 2
67 5 38 314 347 72 260 73 40 141 119 64 44 302 23 78 63 254 238 228 212 201 197 190 177 169 167 163 160 159 165 182 214 246 257 261 265 276 288 286 304 321 350 14 19 17 13 10 7 5 3 359 355 352
60 337 17 28 9 73 65 57 89 78 72 116 233 61 70 103 245 253 241 208 188 183 176 174 174 169 164 169 175 182 187 211 252 272 292 293 290 285 278 271 287 297 322 335 343 345 347 348 347 346 346 347 344 340
74 27 65 339 23 31 120 59 56 93 227 166 112 170 175 196 229 222 208 181 170 168 166 164 166 175 184 188 188 200 216 251 296 307 297 307 303 295 285 271 278 298 311 319 324 327 328 329 331 332 334 336 338 335
38 356 357 14 17 43 68 127 197 138 144 183 158 246 251 246 236 208 186 188 184 180 182 184 187 192 196 198 209 223 251 275 293 310 315 315 317 321 313 308 306 309 309 312 315 315 316 317 320 323 328 329 330 328
4 358 11 44 81 344 332 82 104 181 235 255 276 285 276 273 268 262 250 224 203 200 197 198 205 209 210 222 232 245 259 275 289 298 303 306 300 304 310 308 304 301 299 303 306 306 305 306 308 311 315 319 321 320
343 336 336 35 212 56 328 306 292 278 261 263 252 257 278 301 333 352 227 204 197 201 208 212 215 218 224 238 255 268 271 279 289 296 298 301 303 306 306 302 300 297 297 297 298 299 300 301 304 306 308 310 313 315
337 23 56 354 319 348 340 345 299 279 252 266 270 300 313 312 314 44 27 223 222 223 224 227 231 239 255 251 251 264 278 281 290 292 297 307 312 313 309 307 305 302 299 298 297 296 297 298 299 301 303 304 306 307
320 340 341 329 342 10 353 346 21 354 298 323 348 339 335 329 279 25 21 9 333 201 209 215 215 220 234 252 266 269 273 282 293 307 309 310 309 308 307 307 306 304 302 299 296 294 293 293 294 296 297 299 301 303
Wind_Speed_850mb
55 55 53 57 55 49 51 52 52 49 50 46 45 59 52 51 53 55 69 61 57 33 55 39 46 48 23 24 8 8 5 5 5 3 7 7 6 8 1 6 7 10 8 7 5 6 14 11 7 9 12 40 43 38
63 63 59 58 56 56 54 56 53 52 56 55 53 50 53 69 60 53 62 68 70 55 35 27 47 69 65 58 42 32 22 16 15 5 3 3 5 3 7 7 5 4 11 7 15 12 9 21 32 60 45 44 52 43
61 65 62 61 62 62 59 60 56 56 56 53 52 49 53 55 55 57 66 65 54 53 39 48 62 76 68 60 54 45 37 39 32 42 12 8 14 6 6 12 8 10 14 20 29 28 34 60 72 55 71 68 71 56
67 67 66 64 65 65 65 65 66 61 61 61 56 53 55 55 58 59 62 66 70 37 12 34 53 63 34 41 62 75 75 37 39 38 21 9 10 16 14 17 17 17 11 11 24 36 42 56 69 67 56 54 50 46
68 69 70 70 70 67 65 66 65 64 62 59 57 52 53 56 55 56 58 66 70 55 5 9 29 42 49 46 52 56 64 65 47 23 12 14 18 17 11 12 23 30 34 18 24 53 45 50 69 50 39 40 41 48
69 69 66 66 67 69 70 70 69 66 65 63 61 55 51 49 46 48 36 66 73 74 25 6 22 48 54 53 50 51 56 58 38 19 17 34 40 23 9 13 26 45 54 60 52 72 67 62 54 54 42 38 41 45
61 62 63 63 64 66 68 66 66 67 64 63 61 61 58 52 47 56 16 8 20 59 28 7 5 17 39 43 55 56 57 34 36 34 27 42 41 27 13 28 39 42 57 62 57 58 46 38 22 29 37 46 52 56
58 59 60 61 61 62 63 65 64 63 61 57 57 51 49 49 47 58 71 64 34 49 23 6 6 3 27 19 19 32 25 25 22 23 15 17 25 24 18 28 42 54 50 43 37 33 36 39 35 34 38 47 56 63
53 56 59 59 59 56 55 57 60 60 57 55 51 46 45 53 50 53 46 45 64 50 10 10 10 9 24 20 18 19 20 7 17 10 10 17 10 14 12 32 39 33 21 21 24 26 28 30 34 38 43 49 56 66
56 55 51 54 56 54 54 56 58 57 52 50 48 30 16 31 38 26 21 22 46 26 22 6 19 5 29 24 14 11 15 7 9 12 13 10 27 48 44 42 25 23 23 22 20 15 27 37 38 44 49 52 59 69
47 51 51 50 49 49 49 55 55 51 47 54 30 24 20 20 33 19 16 12 10 5 13 15 36 6 24 7 8 15 6 5 6 10 12 6 7 9 28 27 24 21 20 21 22 24 28 36 45 52 57 61 66 69
54 48 43 46 48 47 43 43 44 49 49 47 29 32 31 22 16 11 9 7 8 11 9 10 17 30 17 22 8 10 8 5 11 5 6 5 8 14 20 20 19 17 19 19 23 27 31 36 41 50 58 63 65 67
51 51 51 48 45 49 48 46 44 46 52 43 29 23 18 17 15 15 17 6 4 5 19 17 9 24 17 22 6 8 10 11 10 4 8 10 8 13 11 11 12 13 17 20 24 31 37 43 46 49 57 57 60 63
45 44 46 49 47 45 48 49 49 45 42 24 21 14 17 10 10 8 10 10 14 17 43 26 12 7 12 7 5 6 5 7 5 6 10 5 17 16 10 8 10 14 20 27 33 38 42 46 51 51 50 51 53 55
33 35 39 41 44 41 43 46 45 50 36 16 13 14 9 7 8 13 21 18 18 23 29 11 7 10 2 4 7 4 4 9 12 10 6 15 16 10 6 9 14 20 26 32 37 42 45 46 48 51 44 42 40 42
32 32 35 39 42 44 41 37 40 47 25 13 3 7 9 8 4 7 17 13 27 38 23 8 6 7 7 5 9 11 8 12 9 5 14 17 8 5 8 12 18 25 30 34 36 39 41 40 40 42 39 34 33 32
32 39 40 35 32 32 36 40 39 19 5 6 4 12 8 11 13 16 19 19 31 24 6 5 13 16 4 5 7 9 11 6 10 18 13 6 3 5 11 16 20 25 27 28 30 29 30 29 29 30 33 30 26 21
20 17 21 27 36 36 34 37 22 7 8 9 2 3 11 12 16 16 21 31 27 15 16 8 11 5 10 11 8 4 7 18 19 16 8 4 2 7 14 18 19 20 22 23 24 25 25 25 24 25 27 24 19 14
8 19 14 18 35 25 7 6 7 8 7 7 10 10 10 13 10 15 24 33 18 15 19 10 6 7 7 4 6 11 21 17 12 13 8 5 0 4 7 10 13 16 18 20 20 22 22 19 19 19 19 18 15 14
13 6 13 23 28 10 9 10 9 12 5 8 10 9 13 9 14 15 17 21 18 13 5 5 7 7 7 11 12 14 16 15 13 14 13 8 5 4 8 12 14 15 16 18 18 20 21 18 16 15 15 15 14 14
9 4 30 42 13 14 13 8 10 9 12 8 14 6 8 13 9 7 8 13 5 2 2 5 8 13 12 11 9 10 11 11 10 10 13 17 13 12 12 12 13 15 20 23 26 28 28 29 26 22 18 16 16 16
5 13 11 16 11 11 14 13 14 11 8 10 8 5 7 4 2 3 4 4 2 2 3 6 13 11 9 11 12 11 9 12 14 16 17 18 15 12 10 10 10 13 17 21 24 26 27 27 26 23 21 20 18 17
10 7 10 10 10 11 6 8 6 6 5 5 5 3 4 4 6 3 3 2 2 6 9 11 12 13 14 14 14 14 16 18 20 21 19 14 9 4 4 6 9 12 12 14 16 19 21 21 21 22 22 20 19 18
11 9 13 12 15 6 5 8 6 6 6 5 5 5 3 2 5 6 3 6 5 12 15 14 15 18 18 17 18 20 21 22 20 16 11 7 3 1 4 7 9 10 14 16 15 15 16 17 18 19 19 19 20 20
7 20 14 12 14 6 8 7 8 6 5 2 6 2 2 1 4 1 4 4 14 23 20 19 20 19 21 25 25 23 20 16 13 10 7 4 4 5 7 9 9 9 10 10 11 13 15 17 19 21 23 23 23 25
15 16 11 2 9 6 1 5 4 3 4 5 1 3 3 5 6 8 5 4 10 26 28 29 30 29 26 24 23 19 13 9 7 8 9 11 11 12 12 10 8 7 6 8 11 14 17 20 22 24 25 27 29 28
11 8 11 14 4 5 8 8 6 6 6 4 2 3 6 2 8 6 4 9 12 19 23 24 25 23 22 22 17 12 8 5 5 6 8 10 11 11 11 10 8 7 8 12 16 20 23 25 27 29 30 28 32 36
8 13 6 17 9 10 7 4 5 3 3 2 5 4 10 11 7 1 3 13 17 25 27 27 26 24 19 17 14 9 6 4 6 7 8 8 7 8 8 7 7 10 13 17 21 25 29 31 33 35 36 37 37 37
8 15 9 8 6 8 3 4 4 2 3 4 4 4 6 6 4 3 2 13 18 25 28 29 27 24 20 17 12 9 6 6 7 8 8 8 8 8 7 9 12 17 23 27 28 31 32 33 35 39 42 44 45 44
10 16 4 2 4 1 2 2 2 2 4 6 8 9 10 8 8 12 14 13 20 22 22 22 21 21 19 17 15 14 12 12 13 15 17 13 13 16 19 21 23 26 32 35 34 31 31 34 36 38 41 43 44 45
13 8 3 1 2 1 2 7 11 12 10 6 11 11 11 12 7 4 9 15 20 25 27 27 26 23 22 18 14 13 14 15 15 14 16 19 22 23 24 27 29 33 37 39 39 40 41 43 46 50 51 52 51 52
12 7 2 5 4 6 7 9 4 3 3 3 4 6 7 8 7 7 9 4 15 20 19 21 20 14 13 15 18 18 15 15 16 18 20 21 22 23 26 30 33 37 41 45 48 51 54 57 59 59 61 61 61 61
7 7 5 6 5 6 11 15 8 8 3 3 4 7 6 6 4 13 13 11 2 9 14 15 17 18 17 13 11 11 11 9 10 14 19 24 29 33 39 44 47 51 55 58 59 60 61 62 64 64 65 65 64 60
Wind_Direction_850mb
258 258 256 254 256 260 246 250 249 250 251 255 258 247 250 248 243 239 241 235 224 235 249 239 243 232 229 217 165 207 1 283 59 96 144 242 198 224 293 262 208 183 174 222 80 32 294 196 345 150 233 300 286 292
256 254 251 252 251 254 254 249 252 249 249 248 249 248 244 250 252 250 248 245 236 231 240 244 252 254 245 247 244 221 219 171 199 114 240 46 289 347 175 238 171 276 200 189 188 217 253 270 271 292 298 291 294 287
259 258 258 255 256 252 253 253 260 254 254 251 250 254 262 256 253 248 249 250 230 232 242 239 247 251 245 237 240 232 241 239 233 237 194 214 236 154 227 241 244 245 241 255 267 262 256 267 276 279 292 286 292 295
258 256 257 255 257 257 254 252 251 253 253 252 253 253 259 259 256 252 247 247 240 237 235 247 247 240 250 237 239 240 245 241 243 235 223 219 236 214 252 254 235 235 184 214 250 261 269 267 271 278 283 289 290 287
262 260 258 255 254 256 257 257 254 252 252 251 248 251 252 260 258 255 250 246 247 228 235 237 240 235 242 241 242 244 241 241 238 236 228 243 240 239 230 243 249 231 239 232 251 262 264 273 279 286 283 287 283 287
263 262 260 256 255 255 257 257 255 254 251 251 250 248 248 255 254 252 257 254 246 246 248 221 245 235 242 244 242 232 235 234 220 227 238 240 234 204 242 245 254 253 244 242 248 262 273 275 279 283 286 286 290 296
263 262 260 259 257 258 258 255 253 249 250 249 247 246 245 250 244 236 225 267 250 225 231 238 243 212 221 227 230 231 224 217 222 237 240 247 247 227 252 258 266 258 254 258 259 260 271 272 261 270 287 296 299 301
264 263 261 259 257 256 255 253 251 247 245 244 244 243 241 243 250 247 247 245 233 202 217 218 252 283 193 188 204 219 212 210 223 228 241 232 250 232 249 253 254 257 258 252 249 258 263 276 287 291 295 299 300 303
267 265 261 256 254 253 254 250 246 242 241 239 241 235 239 237 236 244 255 257 244 219 207 187 163 234 183 197 183 177 188 194 215 217 218 202 217 226 219 243 253 241 240 246 264 273 279 285 294 301 304 309 310 309
266 265 261 257 249 250 254 247 244 235 233 235 223 214 214 216 232 233 225 219 204 210 220 203 187 196 177 173 185 159 193 213 209 225 207 224 245 249 248 252 247 249 254 266 285 278 283 291 301 305 308 310 310 312
268 262 259 257 252 253 251 239 231 228 221 217 198 195 188 179 181 193 210 212 207 211 207 177 188 139 193 148 186 204 200 211 213 241 179 213 262 205 222 221 230 241 261 278 283 287 293 298 305 307 308 310 312 314
264 265 262 254 252 249 240 225 218 218 219 211 202 183 176 181 190 207 190 182 206 216 189 151 176 187 184 199 165 193 202 177 238 121 186 234 236 201 203 211 225 242 258 271 284 291 293 296 300 301 304 308 311 311
258 255 253 256 254 244 240 239 229 225 230 201 198 166 178 175 200 190 180 222 187 171 173 169 176 169 167 195 195 186 213 223 108 144 219 220 154 179 190 206 226 248 270 282 289 294 298 301 304 305 306 310 311 311
256 257 254 249 247 244 231 226 226 223 216 201 172 195 187 175 207 177 166 181 208 199 180 170 126 166 181 175 188 213 213 130 223 234 233 228 170 172 192 228 251 272 289 299 305 306 307 308 309 312 314 313 311 312
265 256 246 245 241 236 229 220 218 216 221 228 184 191 186 135 94 156 163 154 174 174 156 117 97 168 202 210 205 199 188 226 202 222 224 157 161 183 235 278 296 303 306 308 312 314 316 315 313 311 315 313 311 311
250 251 248 243 239 231 221 219 217 218 225 226 169 97 93 93 339 164 188 186 176 164 145 127 141 160 209 207 203 212 192 219 241 196 149 159 184 252 283 301 312 315 316 315 314 314 314 316 316 316 319 318 315 314
254 256 251 237 226 217 212 214 215 217 204 123 114 122 124 119 153 166 166 169 168 166 173 156 170 203 90 194 232 192 205 221 154 147 156 190 248 292 306 317 321 318 318 317 316 319 320 320 318 321 323 328 323 319
229 250 240 219 204 205 208 197 189 136 79 49 329 82 116 110 133 154 165 165 163 195 163 186 128 167 194 192 249 197 161 148 150 161 176 201 255 321 323 330 332 330 331 331 328 326 325 328 329 333 335 336 338 344
212 219 214 206 195 185 146 71 73 98 83 94 112 131 116 117 131 157 161 172 181 159 139 133 161 202 226 192 181 178 169 168 166 172 172 165 272 345 348 352 358 356 352 349 349 349 347 341 336 336 345 352 359 10
327 267 212 188 175 127 82 44 64 82 99 136 116 99 87 100 126 130 143 153 160 152 122 174 210 181 149 145 143 158 165 170 170 148 152 148 138 77 61 51 38 31 30 30 24 23 23 26 19 15 15 16 20 27
299 255 182 177 136 85 90 82 63 86 120 98 116 111 101 109 109 160 140 152 158 116 242 174 147 141 140 155 172 177 176 176 173 175 160 150 135 110 84 69 55 45 42 40 39 38 34 30 28 29 31 36 38 41
135 122 103 92 87 81 79 59 104 101 86 104 95 69 84 96 17 32 84 77 112 139 151 153 161 156 170 181 182 180 164 156 154 152 152 146 134 117 97 70 50 39 35 34 34 32 33 32 33 34 38 42 40 38
125 81 67 62 88 64 63 89 83 50 99 124 125 123 53 35 24 40 28 281 253 199 176 164 173 176 172 171 166 158 148 144 142 142 142 140 136 111 30 1 7 15 17 18 18 24 21 22 25 28 30 30 31 29
94 56 39 46 43 82 86 44 65 81 78 48 57 70 345 269 11 41 252 267 200 178 173 176 177 176 169 161 153 147 146 147 144 146 150 158 178 325 329 332 337 346 2 6 7 8 9 12 13 12 12 11 10 10
92 12 18 12 26 50 50 27 1 59 92 13 97 40 309 1 68 13 239 263 189 182 180 181 181 184 165 151 148 146 147 146 148 157 170 196 256 289 313 323 327 333 349 4 9 15 17 16 14 12 9 7 5 2
67 5 38 314 347 72 260 73 40 141 119 64 44 302 23 78 63 254 238 228 212 201 197 190 177 169 167 163 160 159 165 182 214 246 257 261 265 276 288 286 304 321 350 14 19 17 13 10 7 5 3 359 355 352
60 337 17 28 9 73 65 57 89 78 72 116 233 61 70 103 245 253 241 208 188 183 176 174 174 169 164 169 175 182 187 211 252 272 292 293 290 285 278 271 287 297 322 335 343 345 347 348 347 346 346 347 344 340
74 27 65 339 23 31 120 59 56 93 227 166 112 170 175 196 229 222 208 181 170 168 166 164 166 175 184 188 188 200 216 251 296 307 297 307 303 295 285 271 278 298 311 319 324 327 328 329 331 332 334 336 338 335
38 356 357 14 17 43 68 127 197 138 144 183 158 246 251 246 236 208 186 188 184 180 182 184 187 192 196 198 209 223 251 275 293 310 315 315 317 321 313 308 306 309 309 312 315 315 316 317 320 323 328 329 330 328
4 358 11 44 81 344 332 82 104 181 235 255 276 285 276 273 268 262 250 224 203 200 197 198 205 209 210 222 232 245 259 275 289 298 303 306 300 304 310 308 304 301 299 303 306 306 305 306 308 311 315 319 321 320
343 336 336 35 212 56 328 306 292 278 261 263 252 257 278 301 333 352 227 204 197 201 208 212 215 218 224 238 255 268 271 279 289 296 298 301 303 306 306 302 300 297 297 297 298 299 300 301 304 306 308 310 313 315
337 23 56 354 319 348 340 345 299 279 252 266 270 300 313 312 314 44 27 223 222 223 224 227 231 239 255 251 251 264 278 281 290 292 297 307 312 313 309 307 305 302 299 298 297 296 297 298 299 301 303 304 306 307
320 340 341 329 342 10 353 346 21 354 298 323 348 339 335 329 279 25 21 9 333 201 209 215 215 220 234 252 266 269 273 282 293 307 309 310 309 308 307 307 306 304 302 299 296 294 293 293 294 296 297 299 301 303